Weather Roundup
Issued by NWS Springfield, MO

Home | Current Version | Previous Version | Text Only | Print | Product List | Glossary On
Versions: 1 2 3 4 5 6 7 8 9 10 11 12 13 14 15 16 17 18 19 20 21 22 23 24 25 26 27 28 29 30 31 32 33 34 35 36 37 38 39 40 41 42 43 44 45 46 47 48 49 50
000
NZUS99 KSGF 291907
HRRSGF

HOURLY WEATHER
NATIONAL WEATHER SERVICE SPRINGFIELD MO
200 PM CDT MON SEP 29 2014

......SGF CWA......

CITY           SKY/WX    TMP DP  RH WIND       PRES   REMARKS
SPRINGFIELD    SUNNY     84  57  39 N5        30.04F
JOPLIN         MOSUNNY   84  58  40 SE7       30.04F
WEST PLAINS    MOSUNNY   85  55  35 VRB6      30.04F
ROLLA          SUNNY     84  51  31 N7        30.02F
OSAGE BEACH    SUNNY     82  55  39 NE3       30.03F
BRANSON        PTSUNNY   84  54  34 NW7       30.05F

......SURROUNDING SGF CWA......

CITY           SKY/WX    TMP DP  RH WIND       PRES   REMARKS
CHANUTE        MOSUNNY   83  61  47 VRB3      30.03F
PARSONS        PTSUNNY   86  63  45 VRB6      30.04F
COFFEYVILLE    SUNNY     83  63  50 W7        30.02F
EMPORIA        MOSUNNY   83  60  45 S7        30.03F
GROVE OK       PTSUNNY   82  63  51 CALM      30.04F
ROGERS AR      MOSUNNY   82  54  37 E7        30.06F
SILOAM SPRINGS MOSUNNY   79  59  50 N3        30.05F
HARRISON AR    MOSUNNY   82  58  43 SE6       30.05F
NEAR YELLVILLE MOSUNNY   84  57  39 E3        30.02F

......KANSAS AND MISSOURI......

CITY           SKY/WX    TMP DP  RH WIND       PRES   REMARKS
KANSAS CTY INT MOSUNNY   82  60  47 W7        30.04F
DOWNTOWN KC    MOSUNNY   84  59  42 SW7       30.02F
COLUMBIA       MOSUNNY   84  58  40 W8        30.03F
SEDALIA        MOSUNNY   85  57  38 SW8       30.04F
ST JOSEPH      SUNNY     83  53  35 CALM      30.02F
ST LOUIS       MOSUNNY   86  56  35 N8        30.02F
SPIRIT OF STL  MOSUNNY   84  55  36 CALM      30.00F
KIRKSVILLE     SUNNY     82  56  40 VRB3      30.04F
WICHITA        MOSUNNY   83  55  38 S8        30.01F
TOPEKA         SUNNY     85  59  41 CALM      30.03F
OLATHE         MOSUNNY   81  60  48 CALM      30.03F

......TENNESSEE......

CITY           SKY/WX    TMP DP  RH WIND       PRES   REMARKS
MEMPHIS        MOSUNNY   85  60  42 NE13      29.98F
NASHVILLE      MOSUNNY   86  56  35 N7        29.98F

......ARKANSAS.......

CITY           SKY/WX    TMP DP  RH WIND       PRES   REMARKS
FAYETTEVILLE   SUNNY     82  57  42 S5        30.04F
FT SMITH       SUNNY     85  59  41 VRB3      30.00F
LITTLE ROCK    MOSUNNY   88  58  36 VRB6      29.99F

......OKLAHOMA.......

CITY           SKY/WX    TMP DP  RH WIND       PRES   REMARKS
TULSA          PTSUNNY   87  59  38 S9        30.01F
PONCA CITY     CLOUDY    86  59  39 SE9       30.01F
MCALESTER      PTSUNNY   85  57  38 E7        30.02F
OKLAHOMA CITY  MOSUNNY   86  57  37 S6        30.02F

......IOWA............

CITY           SKY/WX    TMP DP  RH WIND       PRES   REMARKS
DES MOINES     CLOUDY    78  60  53 W8        30.02F

......ILLINOIS........

CITY           SKY/WX    TMP DP  RH WIND       PRES   REMARKS
QUINCY         SUNNY     83  57  41 W7        30.02F
CHICAGO        MOSUNNY   82  57  42 W13G22    29.96F




USA.gov is the U.S. government's official web portal to all federal, state and local government web resources and services.